Zurück zum Katalog

COSMOS 2308

GLONASS

AktivNavigationMEO
NORAD 23512·PAYLOAD·🇷🇺 Russia

Gestartet Mar 7, 1995 von Baikonur Cosmodrome

Loading…

Nächste Überflüge (nächste 24 Stunden)

TLE

AlterndSource: Space-Track

Epoche: Aug 31, 2026, 10:14 UTC

1 23512U 95009B   26243.42690065 -.00000003  00000-0  00000+0 0  9998
2 23512  63.9506 298.4484 0005118 310.0138 139.1018  2.13099954244818

Verfolge COSMOS 2308 in Echtzeit mit AllMySat

Download on the App Store